Location: *
(58.4167°N, 22.5000°E)
Time: 18:31:47
(UTC+00:00)

Cosmos 1758 - Pass Details

Date: 22 September 2019
Orbit: 539 x 564 km, 82.5° (Epoch: 22 October)

Event Time Altitude Azimuth Distance (km) Brightness Sun altitude
Exits shadow 19:15:17 60° 89° (E) 640 3.3 -20.8°
Drops below altitude 10° 19:19:10 10° 19° (NNE) 1,842 6.2 -21.2°
Sets 19:21:21 0° 16° (NNE) 2,736 7.2 -21.4°
